OK1FPA-15 Weather Reports


time (UTC)temp
C
wind
direction
speed
KPH
gust
KPH
rain 1hr
cm
rain 24hr
cm
rain mn
cm
humidity
%
barometer
mb
20260505005738 14 0.0 0.0 0.00 0.00 0.00 72 1011.2
20260505004739 14 0.0 0.0 0.00 0.00 0.00 71 1011.3
20260505003739 14 0.0 0.0 0.00 0.00 0.00 71 1011.2
20260505002739 14 0.0 0.0 0.00 0.00 0.00 71 1011.3
20260505001740 14 0.0 0.0 0.00 0.00 0.00 70 1011.3
20260505000739 15 0.0 0.0 0.00 0.00 0.00 71 1011.3
20260504235739 14 0.0 0.0 0.00 0.00 0.00 71 1011.3
20260504234742 15 0.0 0.0 0.00 0.00 0.00 70 1011.4
20260504233737 15 0.0 0.0 0.00 0.00 0.00 70 1011.5
20260504232738 15 0.0 0.0 0.00 0.00 0.00 70 1011.4
20260504231737 15 0.0 0.0 0.00 0.00 0.00 70 1011.4
20260504230737 15 0.0 0.0 0.00 0.00 0.00 69 1011.7
20260504225737 15 0.0 0.0 0.00 0.00 0.00 69 1011.7
20260504224738 15 0.0 0.0 0.00 0.00 0.00 69 1011.8
20260504223737 15 0.0 0.0 0.00 0.00 0.00 69 1011.8
20260504222738 15 0.0 0.0 0.00 0.00 0.00 69 1011.8
20260504221737 15 0.0 0.0 0.00 0.00 0.00 68 1011.9
20260504220737 15 0.0 0.0 0.00 0.00 0.00 67 1012.0
20260504215738 15 0.0 0.0 0.00 0.00 0.00 67 1012.0
20260504214737 15 0.0 0.0 0.00 0.00 0.00 67 1012.1
20260504213737 15 0.0 0.0 0.00 0.00 0.00 67 1012.3
20260504212737 15 0.0 0.0 0.00 0.00 0.00 66 1012.4
20260504211739 15 0.0 0.0 0.00 0.00 0.00 67 1012.4
20260504210737 16 0.0 0.0 0.00 0.00 0.00 65 1012.5
20260504205738 16 0.0 0.0 0.00 0.00 0.00 65 1012.5
20260504204737 16 0.0 0.0 0.00 0.00 0.00 65 1012.5
20260504203737 16 0.0 0.0 0.00 0.00 0.00 65 1012.6
20260504202737 16 0.0 0.0 0.00 0.00 0.00 65 1012.5
20260504201737 16 0.0 0.0 0.00 0.00 0.00 64 1012.5
20260504200737 16 0.0 0.0 0.00 0.00 0.00 64 1012.5
20260504195737 16 0.0 0.0 0.00 0.00 0.00 63 1012.4
20260504194737 16 0.0 0.0 0.00 0.00 0.00 62 1012.5
20260504193737 17 0.0 0.0 0.00 0.00 0.00 62 1012.4
20260504192737 17 0.0 0.0 0.00 0.00 0.00 60 1012.3
20260504191737 17 0.0 0.0 0.00 0.00 0.00 59 1012.2
20260504190737 18 0.0 0.0 0.00 0.00 0.00 58 1012.2
20260504185737 18 0.0 0.0 0.00 0.00 0.00 57 1012.1
20260504184737 19 0.0 0.0 0.00 0.00 0.00 54 1012.1
20260504183737 20 0.0 0.0 0.00 0.00 0.00 53 1012.1
20260504182737 20 0.0 0.0 0.00 0.00 0.00 50 1012.0
20260504181737 20 0.0 0.0 0.00 0.00 0.00 48 1011.9
20260504180738 20 0.0 0.0 0.00 0.00 0.00 48 1011.9
20260504175737 21 0.0 0.0 0.00 0.00 0.00 47 1011.7
20260504174737 21 0.0 0.0 0.00 0.00 0.00 47 1011.7
20260504173737 21 0.0 0.0 0.00 0.00 0.00 44 1011.6
20260504172737 21 0.0 0.0 0.00 0.00 0.00 45 1011.6
20260504171738 22 0.0 0.0 0.00 0.00 0.00 43 1011.6
20260504170737 22 0.0 0.0 0.00 0.00 0.00 42 1011.6
20260504150737 24 0.0 0.0 0.00 0.00 0.00 32 1011.6
20260504140737 25 0.0 0.0 0.00 0.00 0.00 32 1012.1
20260504130738 25 0.0 0.0 0.00 0.00 0.00 32 1012.6
20260504081736 20 0.0 0.0 0.00 0.00 0.00 38 1014.6
20260504080736 20 0.0 0.0 0.00 0.00 0.00 39 1014.5
20260504050736 13 0.0 0.0 0.00 0.00 0.00 63 1014.6
20260504045736 12 0.0 0.0 0.00 0.00 0.00 64 1014.5
20260504044736 12 0.0 0.0 0.00 0.00 0.00 65 1014.5
20260504043736 12 0.0 0.0 0.00 0.00 0.00 66 1014.4
20260504042736 11 0.0 0.0 0.00 0.00 0.00 67 1014.1
20260504041736 11 0.0 0.0 0.00 0.00 0.00 67 1014.0
20260504040736 11 0.0 0.0 0.00 0.00 0.00 68 1013.8
20260504035736 11 0.0 0.0 0.00 0.00 0.00 68 1013.6
20260504034736 11 0.0 0.0 0.00 0.00 0.00 67 1013.7
20260504033736 11 0.0 0.0 0.00 0.00 0.00 67 1013.7
20260504032736 11 0.0 0.0 0.00 0.00 0.00 67 1013.9
20260504031736 11 0.0 0.0 0.00 0.00 0.00 66 1014.1
20260504030736 12 0.0 0.0 0.00 0.00 0.00 66 1014.1
20260504025736 12 0.0 0.0 0.00 0.00 0.00 64 1014.2
20260504024736 12 0.0 0.0 0.00 0.00 0.00 63 1014.2
20260504023736 12 0.0 0.0 0.00 0.00 0.00 62 1014.2
20260504022736 12 0.0 0.0 0.00 0.00 0.00 62 1014.2
20260504021736 12 0.0 0.0 0.00 0.00 0.00 62 1014.2
20260504020736 13 0.0 0.0 0.00 0.00 0.00 62 1014.1
20260504015736 13 0.0 0.0 0.00 0.00 0.00 61 1014.1
20260504014736 13 0.0 0.0 0.00 0.00 0.00 61 1013.9
20260504013736 13 0.0 0.0 0.00 0.00 0.00 61 1013.8
20260504012736 13 0.0 0.0 0.00 0.00 0.00 59 1013.8
20260504011737 13 0.0 0.0 0.00 0.00 0.00 61 1013.7
20260504010736 13 0.0 0.0 0.00 0.00 0.00 60 1013.8